User: anonymous   Login
Location: Fours
(44.3167°N, 6.7000°E)
Time: 07:49:40
(UTC+00:00)
Language:

Cosmos 1328 - Orbit

View from above orbital plane
View from above orbital plane
View from above satellite
View from above satellite

Ground track
Ground track

The orbit data is extracted from the following two-line orbital elements,

1 12987U 81117A   22023.89998820  .00000637  00000-0  38592-4 0  9994
2 12987  82.5063  42.9699 0019605  11.5529 348.6146 15.08700566185639
Epoch (UTC): 23 January 2022 21:35:58
Eccentricity: 0.0019605
inclination: 82.5063°
perigee height: 526 km
apogee height: 554 km
right ascension of ascending node: 42.9699°
argument of perigee: 11.5529°
revolutions per day: 15.08700566
mean anomaly at epoch: 348.6146°
orbit number at epoch: 18563

The dashed part of the orbit path shows where the satellite is in the earth's shadow,  

DLR